SENTINEL-3A (41335 NORAD) Tracking and Keplerian Element Data

This shows tracking and keplerian element data for the satellite.

Feedback or suggestion? Click here.




ElementValue
Catalog41335
NameSENTINEL-3A
Epoch Orbit18214
Epoch Day229.15396184
Epoch Year2019
RAAN295.2647
Inclination98.6202
Eccentricity0.0001154
Argument of Perigee86.5185
Mean Anonmoly273.6127
Mean Motion14.26739768
Decay Rate-1E-07
L11 41335U 16011A 19229.15396184 -.00000010 00000-0 13835-4 0 9991
L22 41335 98.6202 295.2647 0001154 86.5185 273.6127 14.26739768182141

Live tracking and technical data element details for SENTINEL-3A (NORAD 41335). SENTINEL-3A can be tracked NOW for your location showing map with azimuth and elevation plus other details from your city location.

Track the satellite on the map from your city or location and see movement details for azimuth, elevation, latitude, longitude, range, height, and movement on the map or in text.







IsCatalogInMostPopularTable: catalog: 41335, numindb: 310
Update: records affected: 1



GetName: 41335 SENTINEL-3A

Hit Count: updated at: Wed, 21 Aug 2019 11:40:09 GMT